Regional Weather Roundup
Issued by NWS

Home | Current Version | Previous Version | Graphics & Text | Print | Product List | Glossary On
Versions: 1 2 3 4 5 6 7 8 9 10 11 12 13 14 15 16 17 18 19 20 21 22 23 24 25 26 27 28 29 30 31 32 33 34 35 36 37 38 39 40 41 42 43 44 45 46 47 48 49 50
000
ASUS43 KIND 221709
RWRIN

WEATHER ROUNDUP FOR INDIANA
NATIONAL WEATHER SERVICE INDIANAPOLIS IN
100 PM EDT MON SEP 22 2014

NOTE: "FAIR" INDICATES FEW OR NO CLOUDS BELOW 12,000 FEET WITH NO
SIGNIFICANT WEATHER AND/OR OBSTRUCTIONS TO VISIBILITY.

* - STATION DOES NOT REPORT WEATHER SUCH AS PRECIPITATION OR FOG.

+ - STATION NOT QUALITY CONTROLLED BY THE NATIONAL WEATHER SERVICE.
    USE DATA WITH CAUTION...ESPECIALLY DEWPOINT AND RELATIVE
    HUMIDITY OBSERVATIONS.

INZ001>003-010>013-019-020-221800-
NORTHWEST INDIANA

CITY           SKY/WX    TMP DP  RH WIND       PRES   REMARKS
GARY /AIRPORT/ MOSUNNY   61  45  55 N8        30.30S
KNOX *+        SUNNY     59  44  58 W6        30.27F
LA PORTE +     SUNNY     58  45  62 NW12      30.29R
MICHIGAN CITY+ MOSUNNY   59  43  55 N10       30.30R
MONTICELLO +   SUNNY     59  46  61 NW7       30.28S
RENSSELAER +   MOSUNNY   61  46  59 N3        30.29S
VALPARAISO     SUNNY     60  45  57 N8        30.29S

$$

LMZ046-743>745-221800-
SOUTHERN LAKE MICHIGAN

STATION/POSITION TIME  TEMP WIND        PRES
                       AIR  DIR/SP/G
                 (UTC) (F)  (DEG/KT/KT) (MB)
MICHIGAN CITY    1700   56  340/  9/ 12   N/A

$$

INZ004-005-014>016-021>024-221800-
NORTH CENTRAL INDIANA

CITY           SKY/WX    TMP DP  RH WIND       PRES   REMARKS
ELKHART        MOSUNNY   59  41  51 NW7       30.27S
GOSHEN         SUNNY    N/A N/A N/A N7        30.26S
LOGANSPORT +   SUNNY     59  41  51 N6        30.29R
PERU/GRISSOM   SUNNY     57  46  67 N8        30.27S
ROCHESTER +    SUNNY     61  43  51 W6        30.28S
SOUTH BEND     SUNNY     61  45  55 N9G18     30.27S
WARSAW +       SUNNY     57  43  58 NW9       30.27S

$$

INZ006>009-017-018-025>027-221800-
NORTHEAST INDIANA

CITY           SKY/WX    TMP DP  RH WIND       PRES   REMARKS
ANGOLA *+      SUNNY     57  48  72 N7        30.24S
AUBURN +         N/A     57  39  51 W7        30.26
FORT WAYNE     MOSUNNY   57  42  57 NW8       30.27R
HUNTINGTON +   SUNNY     56  42  59 NW6       30.26S

$$

INZ028-029-035-036-043>045-051>053-221800-
WEST CENTRAL INDIANA

CITY           SKY/WX    TMP DP  RH WIND       PRES   REMARKS
GREENCASTLE +  SUNNY     59  45  58 N3        30.28R
LAFAYETTE      MOSUNNY   59  46  62 N10G16    30.29R
TERRE HAUTE    SUNNY     64  44  48 N8        30.27F

$$

INZ030>032-037>040-046>048-054>057-064-065-221800-
CENTRAL INDIANA

CITY           SKY/WX    TMP DP  RH WIND       PRES   REMARKS
ANDERSON       SUNNY     55  39  54 CALM      30.27F
CP ATTERBURY + SUNNY     59  43  55 N5        30.26F
COLUMBUS       SUNNY     57  45  62 N8        30.27
FRANKFORT +    SUNNY     59  43  55 NW5       30.29R
GREENWOOD *+   SUNNY     59  46  63 NW5       30.27
INDIANAPOLIS   MOSUNNY   60  42  51 N8        30.26F
-EAGLE CREEK   SUNNY     58  41  53 NW9       30.26S
KOKOMO *+      SUNNY     57  43  58 NE6       30.28R
MARION +       SUNNY     55  38  53 CALM      30.28S
MT COMFORT *+  SUNNY     57  34  41 N8        30.27S
SHELBYVILLE    SUNNY     60  41  49 VRB7      30.26F
ZIONSVILLE +   SUNNY     58  42  54 N6        30.28S

$$

INZ033-034-041-042-049-050-058-059-221800-
EAST CENTRAL INDIANA

CITY           SKY/WX    TMP DP  RH WIND       PRES   REMARKS
MUNCIE         SUNNY     56  39  53 N3        30.26F

$$

INZ060-061-067>069-081>083-085>088-221800-
SOUTHWEST INDIANA

CITY           SKY/WX    TMP DP  RH WIND       PRES   REMARKS
EVANSVILLE     SUNNY     66  47  50 NE9       30.27F
WASHINGTON +   SUNNY     64  46  52 N7        30.26S

$$

INZ062-063-066-070>080-084-089>092-221800-
SOUTH CENTRAL AND SOUTHEAST INDIANA

CITY           SKY/WX    TMP DP  RH WIND       PRES   REMARKS
BLOOMINGTON    SUNNY     61  45  55 VRB6      30.26F
NORTH VERNON + SUNNY     61  39  44 N7        30.27

$$




USA.gov is the U.S. government's official web portal to all federal, state and local government web resources and services.